• en Suisse
  • Liste des pays
  • À 7 jours
  • Température de l'eau
  • Carte satellitaire
  • Carte météo
  • Widgets météo
  • user-avatar
    Se connecter

    Météo par heure à Isansupovo

    Ce jour, 20 Juillet, Vendredi

    Heure Température Précipitation Vent Pression Humidité
    00:00 +18°C° 0 mm 2 m/s 744 mmHg 94%
    01:00 +18°C° 0 mm 2 m/s 744 mmHg 95%
    02:00 +18°C° 0 mm 2 m/s 744 mmHg 95%
    03:00 +17°C° 0 mm 2 m/s 744 mmHg 96%
    04:00 +17°C° 0 mm 2 m/s 744 mmHg 96%
    05:00 +18°C° 0 mm 2 m/s 745 mmHg 95%
    06:00 +18°C° 0 mm 2 m/s 745 mmHg 95%
    07:00 +19°C° 0 mm 3 m/s 745 mmHg 94%
    08:00 +20°C° 0 mm 3 m/s 745 mmHg 90%
    09:00 +21°C° 0 mm 3 m/s 745 mmHg 87%
    10:00 +24°C° 0 mm 3 m/s 745 mmHg 84%
    11:00 +25°C° 0,3 mm 3 m/s 745 mmHg 81%
    12:00 +26°C° 0,3 mm 4 m/s 745 mmHg 78%
    13:00 +26°C° 0,3 mm 4 m/s 745 mmHg 75%
    14:00 +27°C° 0,4 mm 4 m/s 745 mmHg 75%
    15:00 +27°C° 0,4 mm 4 m/s 745 mmHg 75%
    16:00 +27°C° 0,4 mm 4 m/s 745 mmHg 75%
    17:00 +26°C° 0,5 mm 4 m/s 745 mmHg 79%
    18:00 +25°C° 0,5 mm 4 m/s 745 mmHg 83%
    19:00 +23°C° 0,5 mm 4 m/s 745 mmHg 86%
    20:00 +22°C° 0,2 mm 4 m/s 745 mmHg 89%
    21:00 +21°C° 0,2 mm 4 m/s 745 mmHg 91%
    22:00 +20°C° 0,2 mm 4 m/s 746 mmHg 93%
    23:00 +19°C° 0,2 mm 5 m/s 746 mmHg 93%

    Demain, 21 Juillet, Samedi

    Heure Température Précipitation Vent Pression Humidité
    00:00 +19°C° 0,2 mm 5 m/s 746 mmHg 94%
    01:00 +17°C° 0,2 mm 5 m/s 746 mmHg 94%
    02:00 +17°C° 0,1 mm 5 m/s 746 mmHg 94%
    03:00 +17°C° 0,1 mm 5 m/s 746 mmHg 94%
    04:00 +17°C° 0,1 mm 5 m/s 746 mmHg 95%
    05:00 +17°C° 0,2 mm 6 m/s 746 mmHg 94%
    06:00 +17°C° 0,2 mm 6 m/s 746 mmHg 93%
    07:00 +19°C° 0,2 mm 6 m/s 747 mmHg 92%
    08:00 +18°C° 0,2 mm 7 m/s 747 mmHg 91%
    09:00 +18°C° 0,2 mm 7 m/s 747 mmHg 89%
    10:00 +20°C° 0,2 mm 7 m/s 747 mmHg 87%
    11:00 +20°C° 0 mm 7 m/s 747 mmHg 83%
    12:00 +21°C° 0 mm 7 m/s 747 mmHg 80%
    13:00 +22°C° 0 mm 7 m/s 747 mmHg 76%
    14:00 +23°C° 0 mm 7 m/s 748 mmHg 74%
    15:00 +23°C° 0 mm 6 m/s 748 mmHg 72%
    16:00 +24°C° 0 mm 6 m/s 748 mmHg 71%
    17:00 +23°C° 0 mm 6 m/s 748 mmHg 73%
    18:00 +23°C° 0 mm 5 m/s 748 mmHg 76%
    19:00 +22°C° 0 mm 4 m/s 748 mmHg 79%
    20:00 +21°C° 0 mm 4 m/s 748 mmHg 80%
    21:00 +20°C° 0 mm 4 m/s 748 mmHg 81%
    22:00 +19°C° 0 mm 4 m/s 748 mmHg 82%
    23:00 +18°C° 0 mm 4 m/s 749 mmHg 80%

    Après-demain, 22 Juillet, Dimanche

    Heure Température Précipitation Vent Pression Humidité
    00:00 +17°C° 0 mm 5 m/s 749 mmHg 77%
    01:00 +16°C° 0 mm 5 m/s 749 mmHg 75%
    02:00 +15°C° 0 mm 5 m/s 749 mmHg 76%
    03:00 +15°C° 0 mm 5 m/s 749 mmHg 77%
    04:00 +14°C° 0 mm 5 m/s 749 mmHg 78%
    05:00 +14°C° 0 mm 5 m/s 749 mmHg 78%
    06:00 +14°C° 0 mm 5 m/s 750 mmHg 79%
    07:00 +15°C° 0 mm 6 m/s 750 mmHg 80%
    08:00 +16°C° 0 mm 6 m/s 750 mmHg 77%
    09:00 +17°C° 0 mm 6 m/s 750 mmHg 74%
    10:00 +20°C° 0 mm 7 m/s 750 mmHg 71%
    11:00 +20°C° 0 mm 7 m/s 750 mmHg 68%
    12:00 +21°C° 0 mm 7 m/s 750 mmHg 65%
    13:00 +22°C° 0 mm 7 m/s 750 mmHg 62%
    14:00 +22°C° 0 mm 6 m/s 750 mmHg 61%
    15:00 +22°C° 0 mm 6 m/s 750 mmHg 61%
    16:00 +22°C° 0 mm 6 m/s 750 mmHg 61%
    17:00 +22°C° 0 mm 5 m/s 750 mmHg 65%
    18:00 +21°C° 0 mm 5 m/s 750 mmHg 69%
    19:00 +20°C° 0 mm 4 m/s 750 mmHg 73%
    20:00 +19°C° 0 mm 4 m/s 750 mmHg 73%
    21:00 +18°C° 0 mm 4 m/s 750 mmHg 73%
    22:00 +16°C° 0 mm 5 m/s 750 mmHg 72%
    23:00 +15°C° 0 mm 4 m/s 751 mmHg 73%

    23 Juillet, Lundi

    Heure Température Précipitation Vent Pression Humidité
    00:00 +14°C° 0 mm 4 m/s 751 mmHg 74%
    01:00 +13°C° 0 mm 4 m/s 751 mmHg 74%
    02:00 +13°C° 0 mm 4 m/s 751 mmHg 76%
    03:00 +12°C° 0 mm 4 m/s 751 mmHg 78%
    04:00 +11°C° 0 mm 3 m/s 752 mmHg 80%
    05:00 +12°C° 0 mm 4 m/s 752 mmHg 79%
    06:00 +13°C° 0 mm 4 m/s 752 mmHg 79%
    07:00 +14°C° 0 mm 4 m/s 752 mmHg 78%
    08:00 +15°C° 0 mm 4 m/s 752 mmHg 74%
    09:00 +17°C° 0 mm 5 m/s 752 mmHg 70%
    10:00 +19°C° 0 mm 5 m/s 752 mmHg 66%
    11:00 +20°C° 0 mm 5 m/s 752 mmHg 64%
    12:00 +21°C° 0 mm 5 m/s 752 mmHg 62%
    13:00 +21°C° 0 mm 5 m/s 752 mmHg 59%
    14:00 +22°C° 0 mm 5 m/s 752 mmHg 59%
    15:00 +22°C° 0 mm 5 m/s 752 mmHg 59%
    16:00 +22°C° 0 mm 4 m/s 752 mmHg 60%
    17:00 +21°C° 0 mm 4 m/s 752 mmHg 64%
    18:00 +21°C° 0 mm 3 m/s 752 mmHg 68%
    19:00 +20°C° 0 mm 2 m/s 752 mmHg 73%
    20:00 +19°C° 0 mm 2 m/s 752 mmHg 75%
    21:00 +17°C° 0 mm 2 m/s 752 mmHg 77%
    22:00 +16°C° 0 mm 2 m/s 752 mmHg 79%
    23:00 +15°C° 0 mm 2 m/s 752 mmHg 80%

    24 Juillet, Mardi

    Heure Température Précipitation Vent Pression Humidité
    00:00 +15°C° 0 mm 2 m/s 753 mmHg 81%
    01:00 +14°C° 0 mm 2 m/s 753 mmHg 82%
    02:00 +14°C° 0 mm 2 m/s 753 mmHg 83%
    03:00 +14°C° 0 mm 2 m/s 753 mmHg 84%
    04:00 +13°C° 0 mm 2 m/s 753 mmHg 85%
    05:00 +14°C° 0 mm 2 m/s 753 mmHg 83%
    06:00 +15°C° 0 mm 2 m/s 753 mmHg 80%
    07:00 +17°C° 0 mm 2 m/s 754 mmHg 78%
    08:00 +18°C° 0 mm 2 m/s 754 mmHg 73%
    09:00 +20°C° 0 mm 2 m/s 754 mmHg 68%
    10:00 +23°C° 0 mm 2 m/s 754 mmHg 63%
    11:00 +24°C° 0 mm 2 m/s 754 mmHg 60%
    12:00 +25°C° 0 mm 2 m/s 754 mmHg 57%
    13:00 +26°C° 0 mm 3 m/s 754 mmHg 54%
    14:00 +26°C° 0 mm 3 m/s 753 mmHg 55%
    15:00 +26°C° 0 mm 2 m/s 753 mmHg 55%
    16:00 +26°C° 0 mm 2 m/s 753 mmHg 55%
    17:00 +26°C° 0 mm 2 m/s 753 mmHg 60%
    18:00 +25°C° 0 mm 2 m/s 753 mmHg 65%
    19:00 +25°C° 0 mm 1 m/s 753 mmHg 70%
    20:00 +23°C° 0 mm 1 m/s 753 mmHg 74%
    21:00 +21°C° 0 mm 1 m/s 753 mmHg 77%
    22:00 +17°C° 0 mm 0 m/s 753 mmHg 81%
    23:00 +19°C° 0 mm 1 m/s 753 mmHg 82%

    25 Juillet, Mercredi

    Heure Température Précipitation Vent Pression Humidité
    00:00 +19°C° 0 mm 1 m/s 753 mmHg 82%
    01:00 +18°C° 0 mm 1 m/s 753 mmHg 83%
    02:00 +18°C° 0 mm 1 m/s 753 mmHg 84%
    03:00 +18°C° 0 mm 1 m/s 754 mmHg 85%
    04:00 +18°C° 0 mm 1 m/s 754 mmHg 86%
    05:00 +19°C° 0 mm 1 m/s 754 mmHg 84%
    06:00 +20°C° 0 mm 1 m/s 754 mmHg 82%
    07:00 +21°C° 0 mm 1 m/s 754 mmHg 80%
    08:00 +21°C° 0 mm 2 m/s 754 mmHg 75%
    09:00 +24°C° 0 mm 2 m/s 754 mmHg 70%
    10:00 +26°C° 0 mm 2 m/s 754 mmHg 65%
    11:00 +27°C° 0 mm 2 m/s 754 mmHg 62%
    12:00 +28°C° 0 mm 2 m/s 754 mmHg 58%
    13:00 +29°C° 0 mm 3 m/s 754 mmHg 55%
    14:00 +29°C° 0 mm 3 m/s 754 mmHg 54%
    15:00 +30°C° 0 mm 3 m/s 753 mmHg 53%
    16:00 +30°C° 0 mm 3 m/s 753 mmHg 52%
    17:00 +29°C° 0 mm 2 m/s 753 mmHg 57%
    18:00 +28°C° 0 mm 2 m/s 753 mmHg 61%
    19:00 +27°C° 0 mm 2 m/s 753 mmHg 65%
    20:00 +26°C° 0 mm 1 m/s 753 mmHg 68%
    21:00 +24°C° 0 mm 1 m/s 753 mmHg 70%
    22:00 +22°C° 0 mm 1 m/s 753 mmHg 73%
    23:00 +22°C° 0 mm 1 m/s 753 mmHg 73%
    Voir plus